Location: Unspecified
(40.7945°N, 111.1337°W)
Time: 05:27:30
(UTC-06:00)

Vanguard 1 - Pass Details

Date: 27 June 2019
Orbit: 653 x 3830 km, 34.3° (Epoch: 20 July)

Event Time Altitude Azimuth Distance (km) Brightness Sun altitude
Rises 03:14:43 0° 244° (WSW) 7,954 - -21.2°
Reaches altitude 10° 03:20:27 10° 242° (WSW) 6,817 - -20.7°
Exits shadow 03:21:12 11° 241° (WSW) 6,664 13.8 -20.7°
Maximum altitude 03:41:26 62° 168° (SSE) 3,028 12.2 -18.7°
Drops below altitude 10° 03:53:46 10° 92° (E) 4,264 13.7 -17.4°
Sets 03:56:27 0° 88° (E) 4,934 14.2 -17.2°
